Regional Weather Roundup
Issued by NWS

Home | Current Version | Previous Version | Graphics & Text | Print | Product List | Glossary On
Versions: 1 2 3 4 5 6 7 8 9 10 11 12 13 14 15 16 17 18 19 20 21 22 23 24 25 26 27 28 29 30 31 32 33 34 35 36 37 38 39 40 41 42 43 44 45 46 47 48 49 50
000
ASUS43 KMPX 171701
RWRMN
WEATHER ROUNDUP FOR MINNESOTA
NATIONAL WEATHER SERVICE TWIN CITIES/CHANHASSEN MN
1200 PM CDT WED SEP 17 2014


NOTE: "FAIR" INDICATES FEW OR NO CLOUDS BELOW 12,000 FEET WITH NO
SIGNIFICANT WEATHER AND/OR OBSTRUCTIONS TO VISIBILITY. N/A MEANS
CURRENT SKY AND/OR WEATHER CONDITIONS ARE NOT AVAILABLE.

MNZ060>063-068>070-171800-
   Twin Cities Metro

CITY           SKY/WX    TMP DP  RH WIND       PRES   REMARKS
TWIN CITIES    MOSUNNY   68  50  52 CALM      29.95F
ST PAUL        SUNNY     67  52  58 CALM      29.96S
CRYSTAL        PTSUNNY   69  51  52 E3        29.94S
BLAINE         MOSUNNY   70  54  56 CALM      29.95S
$$
MNZ001>005-007-008-013>017-022>024-027-028-171800-
   Northwest Minnesota

CITY           SKY/WX    TMP DP  RH WIND       PRES   REMARKS
THIEF RVR FALL SUNNY     59  50  72 NE13      29.99R
FOSSTON        SUNNY     66  52  59 NE6       29.97R
DETROIT LAKES  SUNNY     64  52  63 NE6       29.97S
MOORHEAD       SUNNY     66  54  63 N6        29.96S
PARK RAPIDS    SUNNY     67  46  47 VRB3      29.96R
MAHNOMEN       FAIR      66  48  50 NE7       29.96R
$$
MNZ006-009>011-018-025>026-171800-
   North Central Minnesota

CITY           SKY/WX    TMP DP  RH WIND       PRES   REMARKS
BAUDETTE       MOSUNNY   55  44  66 E12       30.03R
INTL FALLS     PTSUNNY   51  42  71 NE12      30.01R
WASKISH        CLOUDY    55  48  76 NE3       30.00R
LONGVILLE      SUNNY     64  52  63 CALM      29.95S
GRAND RAPIDS   SUNNY     63  46  55 NW6       29.95S
COOK           CLOUDY    55  48  76 N7        29.98R
WALKER         FAIR      62  49  63 E3        29.95S
$$
MNZ012-019>021-037-171800-
   Northeast Minnesota

CITY           SKY/WX    TMP DP  RH WIND       PRES   REMARKS
HIBBING        PTSUNNY   64  47  53 N9        29.96R
TWO HARBORS    MOSUNNY   57  48  72 E13       29.94R
GRAND MARAIS     N/A     45  40  82 E16G23    30.03R
$$
MNZ029>031-032-039>041-046>048-054>057-064-171800-
   West Central Minnesota

CITY           SKY/WX    TMP DP  RH WIND       PRES   REMARKS
WHEATON        SUNNY     63  52  67 NW7       29.97S
ALEXANDRIA     SUNNY     67  55  65 E5        29.96R
WADENA         SUNNY     66  54  63 NE5       29.95S
WILLMAR        FAIR      70  54  56 E7        29.96R
$$
MNZ033>034-036-042>043-049>051-058-059-171800-
   Central Minnesota

CITY           SKY/WX    TMP DP  RH WIND       PRES   REMARKS
ST CLOUD       SUNNY     71  52  50 NE6       29.95S
BRAINERD       SUNNY     64  52  64 N7        29.96S
LONG PRAIRIE   FAIR      64  54  68 N5        29.96R
LITTLE FALLS   SUNNY     64  50  59 E3        29.96R
BUFFALO        SUNNY     65  52  63 CALM      29.96S
MAPLE LAKE     SUNNY     67  56  68 SE3       29.95F
$$
MNZ037-044-045-052-053-171800-
   East Central Minnesota

CITY           SKY/WX    TMP DP  RH WIND       PRES   REMARKS
CAMBRIDGE      SUNNY     68  54  60 CALM      29.93S
HINCKLEY       FAIR      66  54  63 CALM      29.95S
CLOQUET        SUNNY     64  46  52 NW5       29.95S
$$
MNZ071>073-080-081-089-090-097-098-171800-
   Southwest Minnesota

CITY           SKY/WX    TMP DP  RH WIND       PRES   REMARKS
MARSHALL       SUNNY     66  54  63 CALM      29.94S
REDWOOD FALLS  SUNNY     69  55  60 VRB5      29.94S
PIPESTONE      SUNNY     68  55  64 NE8       29.94S
WORTHINGTON    PTSUNNY   66  54  63 SW3       29.96R
$$
MNZ065>067-074>077-082>085-091>093-171800-
   South Central Minnesota

CITY           SKY/WX    TMP DP  RH WIND       PRES   REMARKS
MANKATO        SUNNY     66  50  55 NW3       29.96S
FAIRMONT       SUNNY     68  50  52 CALM      29.96S
OWATONNA       MOSUNNY   66  52  59 SW3       29.97S
$$
MNZ078>079-086>088-094>096-171800-
   Southeast Minnesota

CITY           SKY/WX    TMP DP  RH WIND       PRES   REMARKS
RED WING       SUNNY     66  52  59 CALM      29.96S
AUSTIN         SUNNY     64  52  63 SW5       29.98S
PRESTON        SUNNY     63  56  76 SE5       30.00S
$$
ABBREVIATIONS USED IN REMARKS
   TC - TEMPERATURES IN CELSIUS
  WCI - WIND CHILL INDEX
   HX - HEAT INDEX
  VSB - VISIBILITY
$$


USA.gov is the U.S. government's official web portal to all federal, state and local government web resources and services.